This is the latest recevied weather packets stored in our database for station/object KF0JJO. If no packets are shown the sender has not sent any weather packets the latest 10 day(s).
| Time | Temp. | Humidity | Pressure | Rain* | Wind** | Luminosity | Snow |
|---|---|---|---|---|---|---|---|
| 1777568457 | 8.33° C | 41% | 1049.7 hPa | 0 mm | - | 208 W/m² | - |
| 1777568154 | 7.78° C | 43% | 1049.5 hPa | 0 mm | - | 188 W/m² | - |
| 1777567851 | 7.78° C | 43% | 1049.9 hPa | 0 mm | - | 172 W/m² | - |
| 1777567546 | 8.33° C | 42% | 1049.7 hPa | 0 mm | - | 211 W/m² | - |
| 1777567244 | 7.78° C | 46% | 1049.7 hPa | 0 mm | - | 235 W/m² | - |
| 1777566943 | 7.78° C | 44% | 1049.9 hPa | 0 mm | - | 137 W/m² | - |
| 1777566640 | 7.78° C | 46% | 1049.8 hPa | 0 mm | - | 187 W/m² | - |
| 1777566338 | 7.22° C | 46% | 1049.7 hPa | 0 mm | - | 206 W/m² | - |
| 1777566035 | 7.22° C | 47% | 1050.1 hPa | 0 mm | - | 241 W/m² | - |
| 1777565730 | 7.22° C | 46% | 1050 hPa | 0 mm | - | 172 W/m² | - |
| 1777565427 | 7.22° C | 46% | 1049.8 hPa | 0 mm | - | 208 W/m² | - |
| 1777565123 | 7.22° C | 45% | 1049.8 hPa | 0 mm | - | 276 W/m² | - |
| 1777564820 | 7.22° C | 46% | 1049.7 hPa | 0 mm | - | 233 W/m² | - |
| 1777564514 | 7.22° C | 44% | 1049.9 hPa | 0 mm | - | 296 W/m² | - |
| 1777564210 | 7.78° C | 45% | 1050 hPa | 0 mm | - | 216 W/m² | - |
| 1777563906 | 7.22° C | 47% | 1049.7 hPa | 0 mm | - | 360 W/m² | - |
| 1777563603 | 6.67° C | 48% | 1050 hPa | 0 mm | - | 208 W/m² | - |
| 1777563302 | 6.67° C | 48% | 1050 hPa | 0 mm | - | 179 W/m² | - |
| 1777562999 | 6.67° C | 47% | 1049.8 hPa | 0 mm | - | 291 W/m² | - |
| 1777562695 | 6.67° C | 50% | 1049.8 hPa | 0 mm | - | 173 W/m² | - |
| 1777562394 | 6.67° C | 47% | 1049.9 hPa | 0 mm | - | 224 W/m² | - |
| 1777562090 | 6.11° C | 49% | 1049.7 hPa | 0 mm | - | 145 W/m² | - |
| 1777561788 | 6.11° C | 50% | 1049.9 hPa | 0 mm | - | 114 W/m² | - |
| 1777561483 | 6.11° C | 50% | 1049.9 hPa | 0 mm | - | 124 W/m² | - |
| 1777561179 | 6.11° C | 50% | 1049.9 hPa | 0 mm | - | 113 W/m² | - |
* Rain latest hour (hover to see other rain measurements)
** Current wind speed in m/s (hover to see current wind gust speed)